Regional Weather Roundup
Issued by NWS Sioux Falls, SD

Home | Current Version | Previous Version | Graphics & Text | Print | Product List | Glossary Off
Versions: 1 2 3 4 5 6 7 8 9 10 11 12 13 14 15 16 17 18 19 20 21 22 23 24 25 26 27 28 29 30 31 32 33 34 35 36 37 38 39 40 41 42 43 44 45 46 47 48 49 50

000
ASUS43 KFSD 240402
RWRFSD

WEATHER ROUNDUP FOR SE SOUTH DAKOTA/SW MINNESOTA/NW IOWA
NATIONAL WEATHER SERVICE SIOUX FALLS SD
1100 PM CDT SUN JUL 23 2017

NOTE: "FAIR" INDICATES FEW OR NO CLOUDS BELOW 12,000 FEET WITH NO
SIGNIFICANT WEATHER AND OR OBSTRUCTIONS TO VISIBILITY.


SDZ038>040-050-052>070-240500-
SOUTHEAST SOUTH DAKOTA

CITY           SKY/WX    TMP DP  RH WIND       PRES   REMARKS
BROOKINGS      CLEAR     66  58  75 NE3       30.04R
CHAMBERLAIN    CLEAR     70  60  69 E6        30.00R
HURON          CLEAR     68  62  81 E5        30.00S
MADISON        FAIR      63  63 100 E3        30.03S
MITCHELL       CLEAR     67  61  81 E7        30.00S
SIOUX FALLS    CLEAR     65  60  84 E6        30.02R
WINNER         FAIR      73  57  57 SE12      30.00R
$$

MNZ071-072-080-081-089-090-097-098-240500-
SOUTHWEST MINNESOTA

CITY           SKY/WX    TMP DP  RH WIND       PRES   REMARKS
FAIRMONT       CLOUDY    65  62  90 NW5       30.01R
JACKSON        CLEAR     61  57  88 CALM      30.03R
LUVERNE        CLEAR     59  55  88 CALM      30.03R
MARSHALL       NOT AVBL
MONTEVIDEO     CLOUDY    66  57  72 N3        30.02R
PIPESTONE      CLEAR     64  57  77 CALM      30.03S
REDWOOD FALLS  PTCLDY    68  60  75 CALM      30.00R
WINDOM         CLEAR     63  59  88 NW3       30.02S
WORTHINGTON    CLEAR     60  58  92 CALM      30.04R
$$

IAZ001>003-012>014-020>022-031-032-NEZ013-014-SDZ071-240500-
NORTHWEST IOWA

CITY           SKY/WX    TMP DP  RH WIND       PRES   REMARKS
CHEROKEE       CLEAR     65  60  84 NE3       30.01S
DENISON        CLEAR     66  61  82 NE6       30.02R
ESTHERVILLE    CLEAR     61  60  97 N5        30.00R
ORANGE CITY    CLEAR     66  61  82 NE3       30.02R
SHELDON        CLEAR     61  59  94 CALM      30.01R
SIOUX CITY     CLEAR     70  62  76 E8        29.99R
SPENCER        CLEAR     62  59  90 N6        30.01R
STORM LAKE     CLEAR     64  57  77 N5        30.02R
$$

ABBREVIATIONS USED IN REMARKS
   TC - TEMPERATURE IN CELSIUS
  WCI - WIND CHILL INDEX
   HX - HEAT INDEX
  VSB - VISIBILITY





USA.gov is the U.S. government's official web portal to all federal, state and local government web resources and services.